Year,Month,Day,Hour,Minute,Value (Times are PST for temperature in C)
2014,08,11,00,00,18.00
2014,08,11,00,01,18.10
2014,08,11,00,02,18.00
2014,08,11,00,03,18.00
2014,08,11,00,04,18.00
2014,08,11,00,05,18.00
2014,08,11,00,06,18.00
2014,08,11,00,07,18.00
2014,08,11,00,08,18.00
2014,08,11,00,09,18.00
2014,08,11,00,10,18.00
2014,08,11,00,11,17.90
2014,08,11,00,12,17.90
2014,08,11,00,13,17.90
2014,08,11,00,14,17.90
2014,08,11,00,15,17.80
2014,08,11,00,16,17.80
2014,08,11,00,17,17.80
2014,08,11,00,18,17.70
2014,08,11,00,19,17.70
2014,08,11,00,20,17.70
2014,08,11,00,21,17.60
2014,08,11,00,22,17.60
2014,08,11,00,23,17.60
2014,08,11,00,24,17.60
2014,08,11,00,25,17.50
2014,08,11,00,26,17.50
2014,08,11,00,27,17.40
2014,08,11,00,28,17.40
2014,08,11,00,29,17.40
2014,08,11,00,30,17.40
2014,08,11,00,31,17.30
2014,08,11,00,32,17.30
2014,08,11,00,33,17.30
2014,08,11,00,34,17.30
2014,08,11,00,35,17.20
2014,08,11,00,36,17.20
2014,08,11,00,37,17.20
2014,08,11,00,38,17.10
2014,08,11,00,39,17.10
2014,08,11,00,40,17.10
2014,08,11,00,41,17.10
2014,08,11,00,42,17.00
2014,08,11,00,43,17.00
2014,08,11,00,44,17.00
2014,08,11,00,45,16.90
2014,08,11,00,46,16.90
2014,08,11,00,47,16.90
2014,08,11,00,48,16.80
2014,08,11,00,49,16.80
2014,08,11,00,50,16.80
2014,08,11,00,51,16.80
2014,08,11,00,52,16.80
2014,08,11,00,53,16.80
2014,08,11,00,54,16.70
2014,08,11,00,55,16.70
2014,08,11,00,56,16.70
2014,08,11,00,57,16.70
2014,08,11,00,58,16.70
2014,08,11,00,59,16.70
2014,08,11,01,00,16.70
2014,08,11,01,01,16.70
2014,08,11,01,02,16.70
2014,08,11,01,03,16.70
2014,08,11,01,04,16.70
2014,08,11,01,05,16.70
2014,08,11,01,06,16.70
2014,08,11,01,07,16.70
2014,08,11,01,08,16.70
2014,08,11,01,09,16.70
2014,08,11,01,10,16.70
2014,08,11,01,11,16.70
2014,08,11,01,12,16.70
2014,08,11,01,13,16.70
2014,08,11,01,14,16.70
2014,08,11,01,15,16.70
2014,08,11,01,16,16.70
2014,08,11,01,17,16.70
2014,08,11,01,18,16.70
2014,08,11,01,19,16.70
2014,08,11,01,20,16.70
2014,08,11,01,21,16.70
2014,08,11,01,22,16.70
2014,08,11,01,23,16.70
2014,08,11,01,24,16.60
2014,08,11,01,25,16.60
2014,08,11,01,26,16.70
2014,08,11,01,27,16.70
2014,08,11,01,28,16.70
2014,08,11,01,29,16.70
2014,08,11,01,30,16.70
2014,08,11,01,31,16.70
2014,08,11,01,32,16.70
2014,08,11,01,33,16.70
2014,08,11,01,34,16.70
2014,08,11,01,35,16.70
2014,08,11,01,36,16.80
2014,08,11,01,37,16.80
2014,08,11,01,38,16.80
2014,08,11,01,39,16.80
2014,08,11,01,40,16.80
2014,08,11,01,41,16.80
2014,08,11,01,42,16.80
2014,08,11,01,43,16.80
2014,08,11,01,44,16.80
2014,08,11,01,45,16.90
2014,08,11,01,46,16.90
2014,08,11,01,47,16.90
2014,08,11,01,48,17.00
2014,08,11,01,49,17.20
2014,08,11,01,50,17.40
2014,08,11,01,51,17.50
2014,08,11,01,52,17.60
2014,08,11,01,53,17.80
2014,08,11,01,54,17.80
2014,08,11,01,55,17.90
2014,08,11,01,56,17.90
2014,08,11,01,57,17.90
2014,08,11,01,58,18.00
2014,08,11,01,59,18.00
2014,08,11,02,00,18.00
2014,08,11,02,01,18.00
2014,08,11,02,02,18.00
2014,08,11,02,03,18.00
2014,08,11,02,04,18.10
2014,08,11,02,05,18.30
2014,08,11,02,06,18.40
2014,08,11,02,07,18.50
2014,08,11,02,08,18.60
2014,08,11,02,09,18.60
2014,08,11,02,10,18.60
2014,08,11,02,11,18.70
2014,08,11,02,12,18.70
2014,08,11,02,13,18.70
2014,08,11,02,14,18.70
2014,08,11,02,15,18.70
2014,08,11,02,16,18.70
2014,08,11,02,17,18.80
2014,08,11,02,18,18.80
2014,08,11,02,19,18.80
2014,08,11,02,20,18.80
2014,08,11,02,21,18.80
2014,08,11,02,22,18.90
2014,08,11,02,23,18.90
2014,08,11,02,24,19.00
2014,08,11,02,25,19.00
2014,08,11,02,26,19.10
2014,08,11,02,27,19.20
2014,08,11,02,28,19.30
2014,08,11,02,29,19.40
2014,08,11,02,30,19.50
2014,08,11,02,31,19.60
2014,08,11,02,32,19.60
2014,08,11,02,33,19.70
2014,08,11,02,34,19.80
2014,08,11,02,35,19.90
2014,08,11,02,36,20.00
2014,08,11,02,37,20.10
2014,08,11,02,38,20.20
2014,08,11,02,39,20.40
2014,08,11,02,40,20.60
2014,08,11,02,41,20.80
2014,08,11,02,42,20.90
2014,08,11,02,43,21.00
2014,08,11,02,44,21.10
2014,08,11,02,45,21.30
2014,08,11,02,46,21.30
2014,08,11,02,47,21.40
2014,08,11,02,48,21.50
2014,08,11,02,49,21.60
2014,08,11,02,50,21.70
2014,08,11,02,51,21.70
2014,08,11,02,52,21.80
2014,08,11,02,53,21.80
2014,08,11,02,54,21.80
2014,08,11,02,55,21.80
2014,08,11,02,56,21.90
2014,08,11,02,57,21.90
2014,08,11,02,58,21.90
2014,08,11,02,59,21.80
2014,08,11,03,00,21.80
2014,08,11,03,01,21.80
2014,08,11,03,02,21.70
2014,08,11,03,06,21.50
2014,08,11,03,07,21.60
2014,08,11,03,08,21.60
2014,08,11,03,09,21.60
2014,08,11,03,10,21.50
2014,08,11,03,11,21.50
2014,08,11,03,12,21.50
2014,08,11,03,13,21.40
2014,08,11,03,14,21.40
2014,08,11,03,15,21.40
2014,08,11,03,16,21.40
2014,08,11,03,17,21.40
2014,08,11,03,18,21.30
2014,08,11,03,19,21.30
2014,08,11,03,20,21.30
2014,08,11,03,21,21.20
2014,08,11,03,22,21.20
2014,08,11,03,23,21.10
2014,08,11,03,24,21.10
2014,08,11,03,25,21.10
2014,08,11,03,26,21.00
2014,08,11,03,27,20.90
2014,08,11,03,28,20.90
2014,08,11,03,29,20.90
2014,08,11,03,30,20.80
2014,08,11,03,31,20.80
2014,08,11,03,32,20.80
2014,08,11,03,33,20.80
2014,08,11,03,34,20.70
2014,08,11,03,35,20.70
2014,08,11,03,36,20.70
2014,08,11,03,37,20.70
2014,08,11,03,38,20.70
2014,08,11,03,39,20.70
2014,08,11,03,40,20.70
2014,08,11,03,41,20.70
2014,08,11,03,42,20.70
2014,08,11,03,43,20.70
2014,08,11,03,44,20.70
2014,08,11,03,45,20.60
2014,08,11,03,46,20.60
2014,08,11,03,47,20.60
2014,08,11,03,48,20.60
2014,08,11,03,49,20.60
2014,08,11,03,50,20.60
2014,08,11,03,51,20.70
2014,08,11,03,52,20.70
2014,08,11,03,53,20.70
2014,08,11,03,54,20.80
2014,08,11,03,55,20.80
2014,08,11,03,56,20.80
2014,08,11,03,57,20.80
2014,08,11,03,58,20.80
2014,08,11,03,59,20.80
2014,08,11,04,00,20.80
2014,08,11,04,01,20.70
2014,08,11,04,02,20.70
2014,08,11,04,03,20.70
2014,08,11,04,04,20.70
2014,08,11,04,05,20.70
2014,08,11,04,06,20.70
2014,08,11,04,07,20.60
2014,08,11,04,08,20.60
2014,08,11,04,09,20.70
2014,08,11,04,10,20.70
2014,08,11,04,11,20.70
2014,08,11,04,12,20.70
2014,08,11,04,13,20.70
2014,08,11,04,14,20.70
2014,08,11,04,15,20.70
2014,08,11,04,16,20.70
2014,08,11,04,17,20.80
2014,08,11,04,18,20.80
2014,08,11,04,19,20.80
2014,08,11,04,20,20.90
2014,08,11,04,21,20.90
2014,08,11,04,22,21.00
2014,08,11,04,23,21.10
2014,08,11,04,24,21.10
2014,08,11,04,25,21.10
2014,08,11,04,26,21.10
2014,08,11,04,27,21.00
2014,08,11,04,28,21.00
2014,08,11,04,29,21.00
2014,08,11,04,30,20.90
2014,08,11,04,31,20.90
2014,08,11,04,32,20.80
2014,08,11,04,33,20.80
2014,08,11,04,34,20.70
2014,08,11,04,35,20.60
2014,08,11,04,36,20.60
2014,08,11,04,37,20.50
2014,08,11,04,38,20.50
2014,08,11,04,39,20.40
2014,08,11,04,40,20.40
2014,08,11,04,41,20.40
2014,08,11,04,42,20.30
2014,08,11,04,43,20.30
2014,08,11,04,44,20.30
2014,08,11,04,45,20.30
2014,08,11,04,46,20.20
2014,08,11,04,47,20.20
2014,08,11,04,48,20.20
2014,08,11,04,49,20.20
2014,08,11,04,50,20.20
2014,08,11,04,51,20.10
2014,08,11,04,52,20.10
2014,08,11,04,53,20.10
2014,08,11,04,54,20.10
2014,08,11,04,55,20.10
2014,08,11,04,56,20.10
2014,08,11,04,57,20.00
2014,08,11,04,58,20.00
2014,08,11,04,59,20.00
2014,08,11,05,00,19.90
2014,08,11,05,01,19.90
2014,08,11,05,02,19.90
2014,08,11,05,03,19.80
2014,08,11,05,04,19.80
2014,08,11,05,05,19.70
2014,08,11,05,06,19.50
2014,08,11,05,07,19.40
2014,08,11,05,08,19.30
2014,08,11,05,09,19.30
2014,08,11,05,10,19.20
2014,08,11,05,11,19.10
2014,08,11,05,12,19.10
2014,08,11,05,13,19.00
2014,08,11,05,14,18.90
2014,08,11,05,15,18.90
2014,08,11,05,16,18.90
2014,08,11,05,17,18.80
2014,08,11,05,18,18.80
2014,08,11,05,19,18.80
2014,08,11,05,20,18.80
2014,08,11,05,21,18.80
2014,08,11,05,22,18.80
2014,08,11,05,23,18.80
2014,08,11,05,24,18.80
2014,08,11,05,25,18.80
2014,08,11,05,26,18.80
2014,08,11,05,27,18.80
2014,08,11,05,28,18.80
2014,08,11,05,29,18.80
2014,08,11,05,30,18.80
2014,08,11,05,31,18.80
2014,08,11,05,32,18.90
2014,08,11,05,33,18.90
2014,08,11,05,34,18.90
2014,08,11,05,35,18.90
2014,08,11,05,36,18.90
2014,08,11,05,37,18.90
2014,08,11,05,38,18.90
2014,08,11,05,39,18.90
2014,08,11,05,40,18.90
2014,08,11,05,41,18.90
2014,08,11,05,42,19.00
2014,08,11,05,43,19.00
2014,08,11,05,44,19.10
2014,08,11,05,45,19.10
2014,08,11,05,46,19.20
2014,08,11,05,47,19.20
2014,08,11,05,48,19.20
2014,08,11,05,49,19.20
2014,08,11,05,50,19.30
2014,08,11,05,51,19.30
2014,08,11,05,52,19.30
2014,08,11,05,53,19.30
2014,08,11,05,54,19.40
2014,08,11,05,55,19.40
2014,08,11,05,56,19.40
2014,08,11,05,57,19.50
2014,08,11,05,58,19.50
2014,08,11,05,59,19.60
2014,08,11,06,00,19.60
2014,08,11,06,01,19.60
2014,08,11,06,02,19.60
2014,08,11,06,03,19.70
2014,08,11,06,04,19.70
2014,08,11,06,05,19.70
2014,08,11,06,06,19.70
2014,08,11,06,07,19.80
2014,08,11,06,08,19.80
2014,08,11,06,09,19.80
2014,08,11,06,10,19.80
2014,08,11,06,11,19.80
2014,08,11,06,12,19.80
2014,08,11,06,13,19.80
2014,08,11,06,14,19.80
2014,08,11,06,15,19.90
2014,08,11,06,16,19.90
2014,08,11,06,17,19.90
2014,08,11,06,18,19.90
2014,08,11,06,19,19.90
2014,08,11,06,20,19.90
2014,08,11,06,21,19.90
2014,08,11,06,22,19.90
2014,08,11,06,23,19.90
2014,08,11,06,24,19.90
2014,08,11,06,25,19.90
2014,08,11,06,26,19.90
2014,08,11,06,27,19.90
2014,08,11,06,28,20.00
2014,08,11,06,29,20.00
2014,08,11,06,30,20.00
2014,08,11,06,31,20.00
2014,08,11,06,32,20.00
2014,08,11,06,33,20.10
2014,08,11,06,34,20.10
2014,08,11,06,35,20.10
2014,08,11,06,36,20.10
2014,08,11,06,37,20.10
2014,08,11,06,38,20.10
2014,08,11,06,39,20.10
2014,08,11,06,40,20.10
2014,08,11,06,41,20.10
2014,08,11,06,42,20.10
2014,08,11,06,43,20.10
2014,08,11,06,44,20.10
2014,08,11,06,45,20.10
2014,08,11,06,46,20.10
2014,08,11,06,47,20.10
2014,08,11,06,48,20.10
2014,08,11,06,49,20.10
2014,08,11,06,50,20.10
2014,08,11,06,51,20.10
2014,08,11,06,52,20.10
2014,08,11,06,53,20.10
2014,08,11,06,54,20.20
2014,08,11,06,55,20.20
2014,08,11,06,56,20.20
2014,08,11,06,57,20.20
2014,08,11,06,58,20.20
2014,08,11,06,59,20.30
2014,08,11,07,00,20.30
2014,08,11,07,01,20.30
2014,08,11,07,02,20.40
2014,08,11,07,03,20.40
2014,08,11,07,04,20.40
2014,08,11,07,05,20.50
2014,08,11,07,06,20.50
2014,08,11,07,07,20.60
2014,08,11,07,08,20.60
2014,08,11,07,09,20.70
2014,08,11,07,10,20.80
2014,08,11,07,11,20.80
2014,08,11,07,12,20.90
2014,08,11,07,13,21.00
2014,08,11,07,14,21.00
2014,08,11,07,15,21.10
2014,08,11,07,16,21.10
2014,08,11,07,17,21.20
2014,08,11,07,18,21.20
2014,08,11,07,19,21.30
2014,08,11,07,20,21.30
2014,08,11,07,21,21.40
2014,08,11,07,22,21.40
2014,08,11,07,23,21.50
2014,08,11,07,24,21.60
2014,08,11,07,25,21.70
2014,08,11,07,26,21.70
2014,08,11,07,27,21.80
2014,08,11,07,28,21.80
2014,08,11,07,29,21.90
2014,08,11,07,30,21.90
2014,08,11,07,31,22.00
2014,08,11,07,32,22.00
2014,08,11,07,33,22.10
2014,08,11,07,34,22.10
2014,08,11,07,35,22.20
2014,08,11,07,36,22.20
2014,08,11,07,37,22.30
2014,08,11,07,38,22.30
2014,08,11,07,39,22.40
2014,08,11,07,40,22.50
2014,08,11,07,41,22.50
2014,08,11,07,42,22.60
2014,08,11,07,43,22.70
2014,08,11,07,44,22.80
2014,08,11,07,45,22.80
2014,08,11,07,46,22.90
2014,08,11,07,47,23.00
2014,08,11,07,48,23.00
2014,08,11,07,49,23.10
2014,08,11,07,50,23.10
2014,08,11,07,51,23.20
2014,08,11,07,52,23.20
2014,08,11,07,53,23.20
2014,08,11,07,54,23.30
2014,08,11,07,55,23.30
2014,08,11,07,56,23.30
2014,08,11,07,57,23.40
2014,08,11,07,58,23.40
2014,08,11,07,59,23.40
2014,08,11,08,00,23.40
2014,08,11,08,01,23.50
2014,08,11,08,02,23.50
2014,08,11,08,03,23.50
2014,08,11,08,04,23.50
2014,08,11,08,05,23.60
2014,08,11,08,06,23.60
2014,08,11,08,07,23.60
2014,08,11,08,08,23.70
2014,08,11,08,09,23.70
2014,08,11,08,10,23.70
2014,08,11,08,11,23.70
2014,08,11,08,12,23.70
2014,08,11,08,13,23.80
2014,08,11,08,14,23.80
2014,08,11,08,15,23.80
2014,08,11,08,16,23.90
2014,08,11,08,17,23.90
2014,08,11,08,18,24.00
2014,08,11,08,19,24.10
2014,08,11,08,20,24.10
2014,08,11,08,21,24.20
2014,08,11,08,22,24.30
2014,08,11,08,23,24.40
2014,08,11,08,24,24.40
2014,08,11,08,25,24.50
2014,08,11,08,26,24.60
2014,08,11,08,27,24.60
2014,08,11,08,28,24.70
2014,08,11,08,29,24.70
2014,08,11,08,30,24.70
2014,08,11,08,31,24.70
2014,08,11,08,32,24.60
2014,08,11,08,33,24.50
2014,08,11,08,34,24.50
2014,08,11,08,35,24.50
2014,08,11,08,36,24.50
2014,08,11,08,37,24.50
2014,08,11,08,38,24.50
2014,08,11,08,39,24.40
2014,08,11,08,40,24.30
2014,08,11,08,41,24.20
2014,08,11,08,42,24.10
2014,08,11,08,43,24.10
2014,08,11,08,44,24.10
2014,08,11,08,45,24.10
2014,08,11,08,46,24.10
2014,08,11,08,47,24.20
2014,08,11,08,48,24.20
2014,08,11,08,49,24.30
2014,08,11,08,50,24.40
2014,08,11,08,51,24.50
2014,08,11,08,52,24.60
2014,08,11,08,53,24.50
2014,08,11,08,54,24.50
2014,08,11,08,55,24.50
2014,08,11,08,56,24.50
2014,08,11,08,57,24.50
2014,08,11,08,58,24.60
2014,08,11,08,59,24.70
2014,08,11,09,00,24.80
2014,08,11,09,01,24.90
2014,08,11,09,02,25.00
2014,08,11,09,03,25.10
2014,08,11,09,04,25.20
2014,08,11,09,05,25.30
2014,08,11,09,06,25.30
2014,08,11,09,07,25.20
2014,08,11,09,08,25.20
2014,08,11,09,09,25.20
2014,08,11,09,10,25.30
2014,08,11,09,11,25.40
2014,08,11,09,12,25.50
2014,08,11,09,13,25.50
2014,08,11,09,14,25.60
2014,08,11,09,15,25.60
2014,08,11,09,16,25.70
2014,08,11,09,17,25.70
2014,08,11,09,18,25.70
2014,08,11,09,19,25.80
2014,08,11,09,20,25.90
2014,08,11,09,21,25.90
2014,08,11,09,22,26.00
2014,08,11,09,23,26.10
2014,08,11,09,24,26.20
2014,08,11,09,25,26.20
2014,08,11,09,26,26.30
2014,08,11,09,27,26.30
2014,08,11,09,28,26.30
2014,08,11,09,29,26.30
2014,08,11,09,30,26.30
2014,08,11,09,31,26.30
2014,08,11,09,32,26.30
2014,08,11,09,33,26.30
2014,08,11,09,34,26.30
2014,08,11,09,35,26.30
2014,08,11,09,36,26.30
2014,08,11,09,37,26.20
2014,08,11,09,38,26.10
2014,08,11,09,39,26.00
2014,08,11,09,40,25.80
2014,08,11,09,41,25.60
2014,08,11,09,42,25.60
2014,08,11,09,43,25.50
2014,08,11,09,44,25.40
2014,08,11,09,45,25.40
2014,08,11,09,46,25.50
2014,08,11,09,47,25.50
2014,08,11,09,48,25.60
2014,08,11,09,49,25.70
2014,08,11,09,50,25.80
2014,08,11,09,51,25.90
2014,08,11,09,52,26.00
2014,08,11,09,53,26.10
2014,08,11,09,54,26.10
2014,08,11,09,55,26.20
2014,08,11,09,56,26.20
2014,08,11,09,57,26.20
2014,08,11,09,58,26.20
2014,08,11,09,59,26.20
2014,08,11,10,00,26.20
2014,08,11,10,01,26.20
2014,08,11,10,02,26.20
2014,08,11,10,03,26.30
2014,08,11,10,04,26.40
2014,08,11,10,05,26.50
2014,08,11,10,06,26.60
2014,08,11,10,07,26.70
2014,08,11,10,08,26.70
2014,08,11,10,09,26.70
2014,08,11,10,10,26.60
2014,08,11,10,11,26.60
2014,08,11,10,12,26.60
2014,08,11,10,13,26.70
2014,08,11,10,14,26.80
2014,08,11,10,15,26.90
2014,08,11,10,16,27.00
2014,08,11,10,17,27.10
2014,08,11,10,18,27.10
2014,08,11,10,19,27.20
2014,08,11,10,20,27.10
2014,08,11,10,21,26.90
2014,08,11,10,22,26.80
2014,08,11,10,23,26.80
2014,08,11,10,24,26.80
2014,08,11,10,25,26.90
2014,08,11,10,26,27.00
2014,08,11,10,27,27.10
2014,08,11,10,28,27.20
2014,08,11,10,29,27.30
2014,08,11,10,30,27.30
2014,08,11,10,31,27.40
2014,08,11,10,32,27.40
2014,08,11,10,33,27.30
2014,08,11,10,34,27.30
2014,08,11,10,35,27.30
2014,08,11,10,36,27.40
2014,08,11,10,37,27.40
2014,08,11,10,38,27.40
2014,08,11,10,39,27.40
2014,08,11,10,40,27.30
2014,08,11,10,41,27.20
2014,08,11,10,42,27.20
2014,08,11,10,43,27.20
2014,08,11,10,44,27.20
2014,08,11,10,45,27.20
2014,08,11,10,46,27.20
2014,08,11,10,47,27.30
2014,08,11,10,48,27.30
2014,08,11,10,49,27.40
2014,08,11,10,50,27.50
2014,08,11,10,51,27.60
2014,08,11,10,52,27.50
2014,08,11,10,53,27.50
2014,08,11,10,54,27.60
2014,08,11,10,55,27.60
2014,08,11,10,56,27.60
2014,08,11,10,57,27.70
2014,08,11,10,58,27.70
2014,08,11,10,59,27.70
2014,08,11,11,00,27.70
2014,08,11,11,01,27.80
2014,08,11,11,02,27.90
2014,08,11,11,03,27.90
2014,08,11,11,04,27.70
2014,08,11,11,05,27.60
2014,08,11,11,06,27.40
2014,08,11,11,07,27.40
2014,08,11,11,08,27.50
2014,08,11,11,09,27.50
2014,08,11,11,10,27.60
2014,08,11,11,11,27.70
2014,08,11,11,12,27.90
2014,08,11,11,13,28.00
2014,08,11,11,14,28.10
2014,08,11,11,15,28.10
2014,08,11,11,16,28.10
2014,08,11,11,17,28.20
2014,08,11,11,18,28.20
2014,08,11,11,19,28.20
2014,08,11,11,20,28.20
2014,08,11,11,21,28.10
2014,08,11,11,22,28.10
2014,08,11,11,23,28.20
2014,08,11,11,24,28.30
2014,08,11,11,25,28.30
2014,08,11,11,26,28.50
2014,08,11,11,27,28.50
2014,08,11,11,28,28.60
2014,08,11,11,29,28.70
2014,08,11,11,30,28.70
2014,08,11,11,31,28.50
2014,08,11,11,32,28.30
2014,08,11,11,33,28.30
2014,08,11,11,34,28.30
2014,08,11,11,35,28.30
2014,08,11,11,36,28.30
2014,08,11,11,37,28.20
2014,08,11,11,38,28.00
2014,08,11,11,39,27.90
2014,08,11,11,40,28.00
2014,08,11,11,41,28.00
2014,08,11,11,42,28.00
2014,08,11,11,43,28.10
2014,08,11,11,44,28.10
2014,08,11,11,45,28.20
2014,08,11,11,46,28.20
2014,08,11,11,47,28.30
2014,08,11,11,48,28.40
2014,08,11,11,49,28.40
2014,08,11,11,50,28.40
2014,08,11,11,51,28.40
2014,08,11,11,52,28.40
2014,08,11,11,53,28.40
2014,08,11,11,54,28.40
2014,08,11,11,55,28.40
2014,08,11,11,56,28.30
2014,08,11,11,57,28.30
2014,08,11,11,58,28.40
2014,08,11,11,59,28.40
2014,08,11,12,00,28.50
2014,08,11,12,01,28.40
2014,08,11,12,02,28.50
2014,08,11,12,03,28.50
2014,08,11,12,04,28.60
2014,08,11,12,05,28.70
2014,08,11,12,06,28.70
2014,08,11,12,07,28.70
2014,08,11,12,08,28.80
2014,08,11,12,09,28.70
2014,08,11,12,10,28.70
2014,08,11,12,11,28.60
2014,08,11,12,12,28.50
2014,08,11,12,13,28.40
2014,08,11,12,14,28.30
2014,08,11,12,15,28.30
2014,08,11,12,16,28.40
2014,08,11,12,17,28.50
2014,08,11,12,18,28.50
2014,08,11,12,19,28.50
2014,08,11,12,20,28.50
2014,08,11,12,21,28.50
2014,08,11,12,22,28.60
2014,08,11,12,23,28.70
2014,08,11,12,24,28.80
2014,08,11,12,25,28.80
2014,08,11,12,26,28.90
2014,08,11,12,27,28.90
2014,08,11,12,28,28.90
2014,08,11,12,29,28.90
2014,08,11,12,30,29.00
2014,08,11,12,31,29.10
2014,08,11,12,32,29.30
2014,08,11,12,33,29.40
2014,08,11,12,34,29.60
2014,08,11,12,35,29.70
2014,08,11,12,36,29.80
2014,08,11,12,37,29.80
2014,08,11,12,38,29.90
2014,08,11,12,39,29.90
2014,08,11,12,40,29.90
2014,08,11,12,41,29.90
2014,08,11,12,42,29.90
2014,08,11,12,43,30.00
2014,08,11,12,44,30.00
2014,08,11,12,45,30.00
2014,08,11,12,46,29.90
2014,08,11,12,47,29.80
2014,08,11,12,48,29.80
2014,08,11,12,49,29.70
2014,08,11,12,50,29.60
2014,08,11,12,51,29.40
2014,08,11,12,52,29.30
2014,08,11,12,53,29.20
2014,08,11,12,54,29.20
2014,08,11,12,55,29.10
2014,08,11,12,56,29.10
2014,08,11,12,57,28.90
2014,08,11,12,58,28.80
2014,08,11,12,59,28.70
2014,08,11,13,00,28.60
2014,08,11,13,01,28.60
2014,08,11,13,02,28.50
2014,08,11,13,03,28.50
2014,08,11,13,04,28.60
2014,08,11,13,05,28.60
2014,08,11,13,06,28.60
2014,08,11,13,07,28.60
2014,08,11,13,08,28.60
2014,08,11,13,09,28.60
2014,08,11,13,10,28.60
2014,08,11,13,11,28.70
2014,08,11,13,12,28.80
2014,08,11,13,13,28.80
2014,08,11,13,14,28.80
2014,08,11,13,15,28.70
2014,08,11,13,16,28.70
2014,08,11,13,17,28.70
2014,08,11,13,18,28.80
2014,08,11,13,19,28.80
2014,08,11,13,20,28.80
2014,08,11,13,21,28.80
2014,08,11,13,22,28.80
2014,08,11,13,23,28.90
2014,08,11,13,24,28.90
2014,08,11,13,25,29.00
2014,08,11,13,26,29.10
2014,08,11,13,27,29.10
2014,08,11,13,28,29.10
2014,08,11,13,29,29.10
2014,08,11,13,30,29.10
2014,08,11,13,31,29.10
2014,08,11,13,32,29.10
2014,08,11,13,33,29.10
2014,08,11,13,34,29.20
2014,08,11,13,35,29.20
2014,08,11,13,36,29.30
2014,08,11,13,37,29.30
2014,08,11,13,38,29.40
2014,08,11,13,39,29.50
2014,08,11,13,40,29.60
2014,08,11,13,41,29.70
2014,08,11,13,42,29.80
2014,08,11,13,43,29.80
2014,08,11,13,44,29.80
2014,08,11,13,45,29.90
2014,08,11,13,46,29.90
2014,08,11,13,47,29.90
2014,08,11,13,48,29.90
2014,08,11,13,49,29.90
2014,08,11,13,50,29.90
2014,08,11,13,51,30.00
2014,08,11,13,52,30.10
2014,08,11,13,53,30.10
2014,08,11,13,54,30.20
2014,08,11,13,55,30.30
2014,08,11,13,56,30.20
2014,08,11,13,57,30.10
2014,08,11,13,58,30.00
2014,08,11,13,59,29.90
2014,08,11,14,00,29.90
2014,08,11,14,01,29.90
2014,08,11,14,02,30.00
2014,08,11,14,03,30.10
2014,08,11,14,04,30.20
2014,08,11,14,05,30.20
2014,08,11,14,06,30.30
2014,08,11,14,07,30.30
2014,08,11,14,08,30.30
2014,08,11,14,09,30.30
2014,08,11,14,10,30.30
2014,08,11,14,11,30.30
2014,08,11,14,12,30.30
2014,08,11,14,13,30.20
2014,08,11,14,14,30.10
2014,08,11,14,15,30.10
2014,08,11,14,16,30.10
2014,08,11,14,17,30.00
2014,08,11,14,18,29.90
2014,08,11,14,19,29.90
2014,08,11,14,20,29.80
2014,08,11,14,21,29.70
2014,08,11,14,22,29.70
2014,08,11,14,23,29.70
2014,08,11,14,24,29.70
2014,08,11,14,25,29.70
2014,08,11,14,26,29.70
2014,08,11,14,27,29.80
2014,08,11,14,28,29.90
2014,08,11,14,29,30.00
2014,08,11,14,30,30.10
2014,08,11,14,31,30.20
2014,08,11,14,32,30.20
2014,08,11,14,33,30.20
2014,08,11,14,34,30.30
2014,08,11,14,35,30.30
2014,08,11,14,36,30.40
2014,08,11,14,37,30.60
2014,08,11,14,38,30.60
2014,08,11,14,39,30.80
2014,08,11,14,40,30.90
2014,08,11,14,41,31.00
2014,08,11,14,42,31.10
2014,08,11,14,43,31.00
2014,08,11,14,44,31.00
2014,08,11,14,45,31.00
2014,08,11,14,46,31.10
2014,08,11,14,47,31.10
2014,08,11,14,48,31.20
2014,08,11,14,49,31.20
2014,08,11,14,50,31.20
2014,08,11,14,51,31.20
2014,08,11,14,52,31.20
2014,08,11,14,53,31.20
2014,08,11,14,54,31.10
2014,08,11,14,55,31.10
2014,08,11,14,56,31.10
2014,08,11,14,57,31.10
2014,08,11,14,58,31.00
2014,08,11,14,59,31.00
2014,08,11,15,00,31.00
2014,08,11,15,01,30.90
2014,08,11,15,02,30.80
2014,08,11,15,03,30.70
2014,08,11,15,04,30.60
2014,08,11,15,05,30.60
2014,08,11,15,06,30.70
2014,08,11,15,07,30.80
2014,08,11,15,08,30.80
2014,08,11,15,09,30.80
2014,08,11,15,10,30.80
2014,08,11,15,11,30.80
2014,08,11,15,12,30.70
2014,08,11,15,13,30.70
2014,08,11,15,14,30.80
2014,08,11,15,15,30.80
2014,08,11,15,16,30.70
2014,08,11,15,17,30.80
2014,08,11,15,18,30.80
2014,08,11,15,19,30.80
2014,08,11,15,20,30.80
2014,08,11,15,21,30.70
2014,08,11,15,22,30.70
2014,08,11,15,23,30.60
2014,08,11,15,24,30.60
2014,08,11,15,25,30.50
2014,08,11,15,26,30.50
2014,08,11,15,27,30.40
2014,08,11,15,28,30.30
2014,08,11,15,29,30.30
2014,08,11,15,30,30.30
2014,08,11,15,31,30.30
2014,08,11,15,32,30.30
2014,08,11,15,33,30.30
2014,08,11,15,34,30.30
2014,08,11,15,35,30.30
2014,08,11,15,36,30.30
2014,08,11,15,37,30.30
2014,08,11,15,38,30.30
2014,08,11,15,39,30.30
2014,08,11,15,40,30.30
2014,08,11,15,41,30.30
2014,08,11,15,42,30.30
2014,08,11,15,43,30.30
2014,08,11,15,44,30.40
2014,08,11,15,45,30.40
2014,08,11,15,46,30.40
2014,08,11,15,47,30.30
2014,08,11,15,48,30.30
2014,08,11,15,49,30.20
2014,08,11,15,50,30.10
2014,08,11,15,51,30.10
2014,08,11,15,52,30.00
2014,08,11,15,53,30.00
2014,08,11,15,54,30.00
2014,08,11,15,55,30.00
2014,08,11,15,56,30.00
2014,08,11,15,57,30.00
2014,08,11,15,58,30.00
2014,08,11,15,59,30.00
2014,08,11,16,00,30.00
2014,08,11,16,01,29.90
2014,08,11,16,02,29.90
2014,08,11,16,03,29.90
2014,08,11,16,04,29.90
2014,08,11,16,05,29.90
2014,08,11,16,06,29.90
2014,08,11,16,07,29.90
2014,08,11,16,08,29.90
2014,08,11,16,09,30.00
2014,08,11,16,10,30.00
2014,08,11,16,11,30.00
2014,08,11,16,12,30.00
2014,08,11,16,13,30.00
2014,08,11,16,14,30.00
2014,08,11,16,15,29.90
2014,08,11,16,16,29.90
2014,08,11,16,17,29.90
2014,08,11,16,18,29.90
2014,08,11,16,19,29.90
2014,08,11,16,20,29.90
2014,08,11,16,21,29.90
2014,08,11,16,22,29.90
2014,08,11,16,23,30.00
2014,08,11,16,24,30.10
2014,08,11,16,25,30.20
2014,08,11,16,26,30.20
2014,08,11,16,27,30.20
2014,08,11,16,28,30.30
2014,08,11,16,29,30.30
2014,08,11,16,30,30.20
2014,08,11,16,31,30.20
2014,08,11,16,32,30.10
2014,08,11,16,33,30.00
2014,08,11,16,34,29.90
2014,08,11,16,35,29.80
2014,08,11,16,36,29.70
2014,08,11,16,37,29.60
2014,08,11,16,38,29.50
2014,08,11,16,39,29.30
2014,08,11,16,40,29.20
2014,08,11,16,41,29.00
2014,08,11,16,42,29.00
2014,08,11,16,43,28.90
2014,08,11,16,44,28.90
2014,08,11,16,45,28.80
2014,08,11,16,46,28.80
2014,08,11,16,47,28.80
2014,08,11,16,48,28.70
2014,08,11,16,49,28.60
2014,08,11,16,50,28.50
2014,08,11,16,51,28.40
2014,08,11,16,52,28.30
2014,08,11,16,53,28.30
2014,08,11,16,54,28.20
2014,08,11,16,55,28.10
2014,08,11,16,56,28.00
2014,08,11,16,57,27.90
2014,08,11,16,58,27.80
2014,08,11,16,59,27.70
2014,08,11,17,00,27.60
2014,08,11,17,01,27.60
2014,08,11,17,02,27.50
2014,08,11,17,03,27.40
2014,08,11,17,04,27.30
2014,08,11,17,05,27.20
2014,08,11,17,06,27.20
2014,08,11,17,07,27.20
2014,08,11,17,08,27.20
2014,08,11,17,09,27.30
2014,08,11,17,10,27.30
2014,08,11,17,11,27.40
2014,08,11,17,12,27.50
2014,08,11,17,13,27.60
2014,08,11,17,14,27.60
2014,08,11,17,15,27.70
2014,08,11,17,16,27.70
2014,08,11,17,17,27.60
2014,08,11,17,18,27.60
2014,08,11,17,19,27.50
2014,08,11,17,20,27.40
2014,08,11,17,21,27.40
2014,08,11,17,22,27.40